Location: Brachbach
(49.1847°N, 9.7240°E)
Time: 20:36:49
(UTC+00:00)

Cosmos 2219 Rocket - Pass Details

Date: 17 August 2024
Orbit: 826 x 846 km, 71.0° (Epoch: 09 September)

Event Time Altitude Azimuth Distance (km) Brightness Sun altitude
Exits shadow 23:40:56 78° 272° (W) 871 2.1 -27.7°
Maximum altitude 23:41:08 79° 299° (WNW) 867 2.1 -27.7°
Drops below altitude 10° 23:46:51 10° 27° (NNE) 2,481 5.5 -27.6°
Sets 23:49:19 0° 29° (NNE) 3,420 6.4 -27.6°
